Time,TemperatureF,DewpointF,PressureIn,WindDirection,WindDirectionDegrees,WindSpeedMPH,WindSpeedGustMPH,Humidity,HourlyPrecipIn,Conditions,Clouds,dailyrainin,SoftwareType,DateUTC
2013-05-26 00:04:00,44.1,40.0,29.44,WNW,293,0.0,1.3,86,-99.99,,,-99.99,WSDL version 423,2013-05-26 04:04:00,
2013-05-26 00:09:00,44.1,40.1,29.44,WNW,296,0.4,2.2,87,-99.99,,,-99.99,WSDL version 423,2013-05-26 04:09:00,
2013-05-26 00:14:00,44.1,40.1,29.44,North,353,0.0,2.5,86,-99.99,,,-99.99,WSDL version 423,2013-05-26 04:14:00,
2013-05-26 00:19:00,44.1,40.8,29.44,NNE,14,1.6,4.3,89,-99.99,,,-99.99,WSDL version 423,2013-05-26 04:19:00,
2013-05-26 00:24:00,44.1,41.6,29.44,NNW,340,2.4,4.3,92,-99.99,,,-99.99,WSDL version 423,2013-05-26 04:24:00,
2013-05-26 00:29:00,44.1,42.2,29.44,NNW,340,2.1,4.7,93,-99.99,,,-99.99,WSDL version 423,2013-05-26 04:29:00,
2013-05-26 00:34:00,44.1,42.3,29.44,NNE,19,1.2,4.7,93,-99.99,,,-99.99,WSDL version 423,2013-05-26 04:34:00,
2013-05-26 00:39:00,44.1,42.3,29.44,NNE,28,3.1,5.6,93,-99.99,,,-99.99,WSDL version 423,2013-05-26 04:39:00,
2013-05-26 00:44:00,44.1,42.3,29.44,North,357,2.2,5.6,93,-99.99,,,-99.99,WSDL version 423,2013-05-26 04:44:00,
2013-05-26 00:49:00,44.1,42.3,29.44,NE,34,2.3,5.6,93,-99.99,,,-99.99,WSDL version 423,2013-05-26 04:49:00,
2013-05-26 00:54:00,43.9,41.9,29.41,SSW,212,0.7,5.6,92,-99.99,,,-99.99,WSDL version 423,2013-05-26 04:54:00,
2013-05-26 00:59:00,43.9,41.8,29.41,NNW,348,1.4,4.5,92,-99.99,,,-99.99,WSDL version 423,2013-05-26 04:59:00,
2013-05-26 01:04:00,43.8,41.9,29.41,North,3,1.0,4.5,93,-99.99,,,-99.99,WSDL version 423,2013-05-26 05:04:00,
2013-05-26 01:09:00,43.7,41.8,29.41,NW,326,1.5,3.4,93,-99.99,,,-99.99,WSDL version 423,2013-05-26 05:09:00,
2013-05-26 01:14:00,43.7,42.1,29.41,NNW,343,2.2,3.8,94,-99.99,,,-99.99,WSDL version 423,2013-05-26 05:14:00,
2013-05-26 01:19:00,43.7,42.5,29.41,NNE,17,2.5,5.6,96,-99.99,,,-99.99,WSDL version 423,2013-05-26 05:19:00,
2013-05-26 01:24:00,43.5,42.3,29.41,ESE,108,2.0,5.6,96,-99.99,,,-99.99,WSDL version 423,2013-05-26 05:24:00,
2013-05-26 01:29:00,43.5,42.4,29.41,North,349,2.3,5.6,97,-99.99,,,-99.99,WSDL version 423,2013-05-26 05:29:00,
2013-05-26 01:34:00,43.5,42.5,29.41,NNE,28,2.0,6.3,96,-99.99,,,-99.99,WSDL version 423,2013-05-26 05:34:00,
2013-05-26 01:39:00,43.3,42.5,29.41,NW,320,2.6,6.3,97,-99.99,,,-99.99,WSDL version 423,2013-05-26 05:39:00,
2013-05-26 01:44:00,43.3,42.2,29.41,SW,231,1.6,4.0,96,-99.99,,,-99.99,WSDL version 423,2013-05-26 05:44:00,
2013-05-26 01:49:00,43.2,42.0,29.41,SE,133,1.8,3.1,96,-99.99,,,-99.99,WSDL version 423,2013-05-26 05:49:00,
2013-05-26 01:54:00,43.1,41.9,29.41,West,276,1.1,4.9,96,-99.99,,,-99.99,WSDL version 423,2013-05-26 05:54:00,
2013-05-26 01:59:00,43.0,41.9,29.41,North,8,2.3,5.6,97,-99.99,,,-99.99,WSDL version 423,2013-05-26 05:59:00,
2013-05-26 02:04:00,43.0,42.1,29.41,NE,42,2.0,5.6,97,-99.99,,,-99.99,WSDL version 423,2013-05-26 06:04:00,
2013-05-26 02:09:00,43.0,42.1,29.41,NNW,328,1.7,5.4,97,-99.99,,,-99.99,WSDL version 423,2013-05-26 06:09:00,
2013-05-26 02:14:00,43.0,42.0,29.41,North,358,1.5,4.5,96,-99.99,,,-99.99,WSDL version 423,2013-05-26 06:14:00,
2013-05-26 02:19:00,42.9,41.7,29.41,East,101,1.5,2.9,96,-99.99,,,-99.99,WSDL version 423,2013-05-26 06:19:00,
2013-05-26 02:24:00,42.8,41.7,29.38,SSW,205,0.7,4.3,97,-99.99,,,-99.99,WSDL version 423,2013-05-26 06:24:00,
2013-05-26 02:29:00,42.8,41.9,29.38,NNW,332,2.2,4.3,97,-99.99,,,-99.99,WSDL version 423,2013-05-26 06:29:00,
2013-05-26 02:34:00,42.8,41.9,29.38,West,260,0.9,4.9,97,-99.99,,,-99.99,WSDL version 423,2013-05-26 06:34:00,
2013-05-26 02:39:00,42.6,41.8,29.38,West,273,2.5,4.9,98,-99.99,,,-99.99,WSDL version 423,2013-05-26 06:39:00,
2013-05-26 02:44:00,42.4,41.9,29.38,WNW,283,0.6,4.7,98,-99.99,,,-99.99,WSDL version 423,2013-05-26 06:44:00,
2013-05-26 02:49:00,42.4,41.9,29.38,ENE,65,2.3,5.6,99,-99.99,,,-99.99,WSDL version 423,2013-05-26 06:49:00,
2013-05-26 02:54:00,42.4,42.1,29.38,NNE,16,1.6,5.6,99,-99.99,,,-99.99,WSDL version 423,2013-05-26 06:54:00,
2013-05-26 02:59:00,42.4,42.2,29.38,East,95,2.1,5.4,99,-99.99,,,-99.99,WSDL version 423,2013-05-26 06:59:00,
2013-05-26 03:04:00,42.4,42.1,29.38,NNW,346,2.0,3.4,99,-99.99,,,-99.99,WSDL version 423,2013-05-26 07:04:00,
2013-05-26 03:09:00,42.4,42.4,29.38,SW,230,1.3,6.5,100,-99.99,,,-99.99,WSDL version 423,2013-05-26 07:09:00,
2013-05-26 03:14:00,42.3,42.3,29.38,WNW,284,2.6,6.5,100,-99.99,,,-99.99,WSDL version 423,2013-05-26 07:14:00,
2013-05-26 03:19:00,42.3,42.3,29.38,North,355,2.2,4.9,100,-99.99,,,-99.99,WSDL version 423,2013-05-26 07:19:00,
2013-05-26 03:24:00,42.3,42.3,29.38,North,5,4.0,6.3,100,-99.99,,,-99.99,WSDL version 423,2013-05-26 07:24:00,
2013-05-26 03:29:00,42.3,42.3,29.38,NNW,338,3.7,6.5,100,-99.99,,,-99.99,WSDL version 423,2013-05-26 07:29:00,
2013-05-26 03:34:00,42.3,42.3,29.38,NNW,330,3.2,6.5,100,-99.99,,,-99.99,WSDL version 423,2013-05-26 07:34:00,
2013-05-26 03:44:00,42.1,42.1,29.38,NW,309,2.7,9.8,100,-99.99,,,-99.99,WSDL version 423,2013-05-26 07:44:00,
2013-05-26 03:49:00,42.1,42.1,29.38,North,11,2.0,9.8,100,-99.99,,,-99.99,WSDL version 423,2013-05-26 07:49:00,
2013-05-26 03:54:00,42.1,42.1,29.38,NNW,338,3.0,6.0,100,-99.99,,,-99.99,WSDL version 423,2013-05-26 07:54:00,
2013-05-26 03:59:00,42.1,42.1,29.38,NNW,333,3.2,6.3,100,-99.99,,,-99.99,WSDL version 423,2013-05-26 07:59:00,
2013-05-26 04:04:00,42.1,42.1,29.38,SSE,163,1.6,6.3,100,-99.99,,,-99.99,WSDL version 423,2013-05-26 08:04:00,
2013-05-26 04:09:00,42.1,42.1,29.38,West,273,2.1,3.8,100,-99.99,,,-99.99,WSDL version 423,2013-05-26 08:09:00,
2013-05-26 04:14:00,42.1,42.1,29.38,North,354,1.6,4.9,100,-99.99,,,-99.99,WSDL version 423,2013-05-26 08:14:00,
2013-05-26 04:19:00,42.0,42.0,29.38,NNW,340,1.9,4.9,100,-99.99,,,-99.99,WSDL version 423,2013-05-26 08:19:00,
2013-05-26 04:24:00,41.9,41.9,29.38,North,360,2.8,4.3,100,-99.99,,,-99.99,WSDL version 423,2013-05-26 08:24:00,
2013-05-26 04:29:00,41.9,41.9,29.38,NNW,345,1.8,4.3,100,-99.99,,,-99.99,WSDL version 423,2013-05-26 08:29:00,
2013-05-26 04:34:00,41.9,41.9,29.38,North,355,2.5,4.7,100,-99.99,,,-99.99,WSDL version 423,2013-05-26 08:34:00,
2013-05-26 04:39:00,41.9,41.9,29.35,North,360,2.0,4.9,100,-99.99,,,-99.99,WSDL version 423,2013-05-26 08:39:00,
2013-05-26 04:44:00,42.0,42.0,29.35,North,8,0.6,4.9,100,-99.99,,,-99.99,WSDL version 423,2013-05-26 08:44:00,
2013-05-26 04:49:00,41.9,41.9,29.35,NW,312,0.4,4.5,100,-99.99,,,-99.99,WSDL version 423,2013-05-26 08:49:00,
2013-05-26 04:54:00,41.9,41.9,29.35,NW,323,0.6,3.6,100,-99.99,,,-99.99,WSDL version 423,2013-05-26 08:54:00,
2013-05-26 04:59:00,42.0,42.0,29.35,North,10,2.3,3.8,100,-99.99,,,-99.99,WSDL version 423,2013-05-26 08:59:00,
2013-05-26 05:04:00,42.1,42.1,29.35,North,360,2.5,6.3,100,-99.99,,,-99.99,WSDL version 423,2013-05-26 09:04:00,
2013-05-26 05:09:00,42.1,42.1,29.35,NNW,345,2.1,7.2,100,-99.99,,,-99.99,WSDL version 423,2013-05-26 09:09:00,
2013-05-26 05:14:00,42.1,42.1,29.35,NNW,329,2.2,8.5,100,-99.99,,,-99.99,WSDL version 423,2013-05-26 09:14:00,
2013-05-26 05:19:00,42.1,42.1,29.35,NNW,348,2.2,8.5,100,-99.99,,,-99.99,WSDL version 423,2013-05-26 09:19:00,
2013-05-26 05:24:00,42.1,42.1,29.35,NNE,28,2.0,4.9,100,-99.99,,,-99.99,WSDL version 423,2013-05-26 09:24:00,
2013-05-26 05:29:00,42.1,42.1,29.35,North,3,3.3,6.7,100,-99.99,,,-99.99,WSDL version 423,2013-05-26 09:29:00,
2013-05-26 05:34:00,42.1,42.1,29.35,NNW,340,2.7,6.7,100,-99.99,,,-99.99,WSDL version 423,2013-05-26 09:34:00,
2013-05-26 05:39:00,42.3,42.3,29.35,NNW,338,2.6,5.6,100,-99.99,,,-99.99,WSDL version 423,2013-05-26 09:39:00,
2013-05-26 05:44:00,42.3,42.1,29.35,North,349,2.3,4.7,99,-99.99,,,-99.99,WSDL version 423,2013-05-26 09:44:00,
2013-05-26 05:49:00,42.3,42.0,29.35,NW,318,0.4,4.7,99,-99.99,,,-99.99,WSDL version 423,2013-05-26 09:49:00,
2013-05-26 05:54:00,42.3,42.0,29.35,North,349,2.9,4.3,99,-99.99,,,-99.99,WSDL version 423,2013-05-26 09:54:00,
2013-05-26 05:59:00,42.3,42.0,29.35,NW,321,2.9,4.0,99,-99.99,,,-99.99,WSDL version 423,2013-05-26 09:59:00,
2013-05-26 06:04:00,42.4,41.9,29.35,WSW,250,1.1,5.8,98,-99.99,,,-99.99,WSDL version 423,2013-05-26 10:04:00,
2013-05-26 06:09:00,42.4,41.9,29.35,North,11,2.3,6.9,98,-99.99,,,-99.99,WSDL version 423,2013-05-26 10:09:00,
2013-05-26 06:14:00,42.4,41.9,29.35,North,350,3.1,6.9,98,-99.99,,,-99.99,WSDL version 423,2013-05-26 10:14:00,
2013-05-26 06:19:00,42.4,41.6,29.35,North,350,1.8,4.9,97,-99.99,,,-99.99,WSDL version 423,2013-05-26 10:19:00,
2013-05-26 06:24:00,42.4,41.6,29.35,ENE,65,2.2,5.8,97,-99.99,,,-99.99,WSDL version 423,2013-05-26 10:24:00,
2013-05-26 06:29:00,42.5,41.6,29.35,NW,321,3.8,6.0,97,-99.99,,,-99.99,WSDL version 423,2013-05-26 10:29:00,
2013-05-26 06:34:00,42.6,41.7,29.35,North,357,3.0,6.0,96,-99.99,,,-99.99,WSDL version 423,2013-05-26 10:34:00,
2013-05-26 06:39:00,42.8,41.6,29.35,WNW,288,2.4,6.0,96,-99.99,,,-99.99,WSDL version 423,2013-05-26 10:39:00,
2013-05-26 06:44:00,42.8,41.6,29.35,NNW,338,2.5,4.3,96,-99.99,,,-99.99,WSDL version 423,2013-05-26 10:44:00,
2013-05-26 06:54:00,43.1,41.4,29.35,North,353,3.9,8.5,93,-99.99,,,-99.99,WSDL version 423,2013-05-26 10:54:00,
2013-05-26 06:59:00,43.3,41.4,29.35,NNW,329,3.0,8.5,92,-99.99,,,-99.99,WSDL version 423,2013-05-26 10:59:00,
2013-05-26 07:04:00,43.4,41.1,29.35,North,350,3.7,7.2,91,-99.99,,,-99.99,WSDL version 423,2013-05-26 11:04:00,
2013-05-26 07:09:00,43.6,41.2,29.35,West,264,3.1,7.6,91,-99.99,,,-99.99,WSDL version 423,2013-05-26 11:09:00,
2013-05-26 07:14:00,43.7,41.0,29.35,NW,326,2.6,7.6,90,-99.99,,,-99.99,WSDL version 423,2013-05-26 11:14:00,
2013-05-26 07:19:00,43.8,40.9,29.35,NNE,23,2.2,6.3,90,-99.99,,,-99.99,WSDL version 423,2013-05-26 11:19:00,
2013-05-26 07:24:00,43.9,40.8,29.38,NE,51,2.8,4.9,89,-99.99,,,-99.99,WSDL version 423,2013-05-26 11:24:00,
2013-05-26 07:29:00,43.9,40.7,29.38,North,3,4.2,7.4,88,-99.99,,,-99.99,WSDL version 423,2013-05-26 11:29:00,
2013-05-26 07:34:00,44.1,40.7,29.38,NNE,31,2.3,7.4,88,-99.99,,,-99.99,WSDL version 423,2013-05-26 11:34:00,
2013-05-26 07:39:00,44.2,40.9,29.38,North,10,3.1,4.9,88,-99.99,,,-99.99,WSDL version 423,2013-05-26 11:39:00,
2013-05-26 07:44:00,44.5,40.8,29.38,North,357,2.6,5.6,87,-99.99,,,-99.99,WSDL version 423,2013-05-26 11:44:00,
2013-05-26 07:49:00,44.8,40.5,29.38,NW,312,2.4,6.0,86,-99.99,,,-99.99,WSDL version 423,2013-05-26 11:49:00,
2013-05-26 07:54:00,45.1,40.9,29.38,NNW,329,3.1,7.2,84,-99.99,,,-99.99,WSDL version 423,2013-05-26 11:54:00,
2013-05-26 07:59:00,45.5,40.8,29.38,North,357,3.0,9.4,83,-99.99,,,-99.99,WSDL version 423,2013-05-26 11:59:00,
2013-05-26 08:04:00,45.9,40.7,29.38,North,353,3.4,9.4,81,-99.99,,,-99.99,WSDL version 423,2013-05-26 12:04:00,
2013-05-26 08:09:00,46.2,40.6,29.38,NW,315,3.7,6.5,80,-99.99,,,-99.99,WSDL version 423,2013-05-26 12:09:00,
2013-05-26 08:14:00,46.4,39.9,29.38,NW,323,3.9,7.4,77,-99.99,,,-99.99,WSDL version 423,2013-05-26 12:14:00,
2013-05-26 08:19:00,46.4,39.5,29.38,NNW,335,4.4,9.8,76,-99.99,,,-99.99,WSDL version 423,2013-05-26 12:19:00,
2013-05-26 08:24:00,46.6,39.5,29.38,West,263,2.3,9.8,77,-99.99,,,-99.99,WSDL version 423,2013-05-26 12:24:00,
2013-05-26 08:29:00,46.6,39.0,29.38,WSW,255,3.4,8.7,75,-99.99,,,-99.99,WSDL version 423,2013-05-26 12:29:00,
2013-05-26 08:34:00,47.0,39.8,29.38,NNW,334,2.0,8.7,76,-99.99,,,-99.99,WSDL version 423,2013-05-26 12:34:00,
2013-05-26 08:39:00,47.0,40.0,29.38,West,260,2.3,4.9,76,-99.99,,,-99.99,WSDL version 423,2013-05-26 12:39:00,
2013-05-26 08:44:00,46.8,39.5,29.38,NE,35,3.0,6.0,75,-99.99,,,-99.99,WSDL version 423,2013-05-26 12:44:00,
2013-05-26 08:49:00,46.5,39.4,29.38,South,183,2.6,6.0,76,-99.99,,,-99.99,WSDL version 423,2013-05-26 12:49:00,
2013-05-26 08:54:00,46.3,39.2,29.38,SSW,211,3.2,6.0,76,-99.99,,,-99.99,WSDL version 423,2013-05-26 12:54:00,
2013-05-26 08:59:00,46.0,38.9,29.38,NE,53,2.5,6.0,76,-99.99,,,-99.99,WSDL version 423,2013-05-26 12:59:00,
2013-05-26 09:04:00,46.0,38.9,29.38,NNE,25,4.1,6.3,76,-99.99,,,-99.99,WSDL version 423,2013-05-26 13:04:00,
2013-05-26 09:09:00,45.9,38.9,29.38,NW,326,3.1,7.4,77,-99.99,,,-99.99,WSDL version 423,2013-05-26 13:09:00,
2013-05-26 09:14:00,45.6,38.9,29.38,WSW,258,2.4,7.4,78,-99.99,,,-99.99,WSDL version 423,2013-05-26 13:14:00,
2013-05-26 09:19:00,45.3,39.0,29.38,NW,321,2.4,6.7,79,-99.99,,,-99.99,WSDL version 423,2013-05-26 13:19:00,
2013-05-26 09:24:00,45.1,39.5,29.38,NW,325,3.4,10.1,82,-99.99,,,-99.99,WSDL version 423,2013-05-26 13:24:00,
2013-05-26 09:29:00,44.8,40.0,29.38,NNW,346,3.1,10.1,83,-99.99,,,-99.99,WSDL version 423,2013-05-26 13:29:00,
2013-05-26 09:34:00,44.8,40.3,29.38,NW,310,2.8,8.5,84,-99.99,,,-99.99,WSDL version 423,2013-05-26 13:34:00,
2013-05-26 09:39:00,44.9,40.5,29.41,NNW,335,2.3,8.5,84,-99.99,,,-99.99,WSDL version 423,2013-05-26 13:39:00,
2013-05-26 09:44:00,45.1,41.0,29.41,NNW,346,2.0,5.8,86,-99.99,,,-99.99,WSDL version 423,2013-05-26 13:44:00,
2013-05-26 09:49:00,45.4,41.8,29.41,North,354,3.3,6.9,88,-99.99,,,-99.99,WSDL version 423,2013-05-26 13:49:00,
2013-05-26 09:54:00,45.8,42.1,29.38,WSW,253,1.3,7.4,87,-99.99,,,-99.99,WSDL version 423,2013-05-26 13:54:00,
2013-05-26 09:59:00,46.4,42.7,29.38,North,350,2.0,7.4,87,-99.99,,,-99.99,WSDL version 423,2013-05-26 13:59:00,
2013-05-26 10:04:00,46.7,42.7,29.38,ENE,68,2.1,3.6,86,-99.99,,,-99.99,WSDL version 423,2013-05-26 14:04:00,
2013-05-26 10:09:00,46.9,42.7,29.38,NW,309,2.0,4.0,84,-99.99,,,-99.99,WSDL version 423,2013-05-26 14:09:00,
2013-05-26 10:14:00,46.8,42.2,29.38,NW,312,1.5,7.4,83,-99.99,,,-99.99,WSDL version 423,2013-05-26 14:14:00,
2013-05-26 10:19:00,46.7,41.4,29.38,WNW,295,2.7,8.1,81,-99.99,,,-99.99,WSDL version 423,2013-05-26 14:19:00,
2013-05-26 10:24:00,46.7,41.3,29.38,NNW,332,3.4,8.1,81,-99.99,,,-99.99,WSDL version 423,2013-05-26 14:24:00,
2013-05-26 10:29:00,46.4,41.0,29.38,NW,323,3.1,7.8,81,-99.99,,,-99.99,WSDL version 423,2013-05-26 14:29:00,
2013-05-26 10:34:00,46.4,41.0,29.38,North,5,2.5,7.8,82,-99.99,,,-99.99,WSDL version 423,2013-05-26 14:34:00,
2013-05-26 10:39:00,46.4,41.0,29.41,NW,323,3.8,9.6,81,-99.99,,,-99.99,WSDL version 423,2013-05-26 14:39:00,
2013-05-26 10:44:00,46.4,41.0,29.41,NW,326,3.2,9.6,81,-99.99,,,-99.99,WSDL version 423,2013-05-26 14:44:00,
2013-05-26 10:49:00,46.6,41.4,29.41,SW,230,3.5,7.8,82,-99.99,,,-99.99,WSDL version 423,2013-05-26 14:49:00,
2013-05-26 10:54:00,46.6,41.8,29.41,NNW,340,2.5,7.8,83,-99.99,,,-99.99,WSDL version 423,2013-05-26 14:54:00,
2013-05-26 10:59:00,47.1,42.6,29.41,NNW,345,2.3,4.3,84,-99.99,,,-99.99,WSDL version 423,2013-05-26 14:59:00,
2013-05-26 11:04:00,47.2,42.8,29.41,WSW,253,1.2,5.8,84,-99.99,,,-99.99,WSDL version 423,2013-05-26 15:04:00,
2013-05-26 11:09:00,47.5,42.8,29.41,NW,318,4.0,7.8,82,-99.99,,,-99.99,WSDL version 423,2013-05-26 15:09:00,
2013-05-26 11:14:00,47.6,42.3,29.41,NNW,334,2.4,7.8,81,-99.99,,,-99.99,WSDL version 423,2013-05-26 15:14:00,
2013-05-26 11:19:00,47.6,41.1,29.41,North,360,3.0,6.5,77,-99.99,,,-99.99,WSDL version 423,2013-05-26 15:19:00,
2013-05-26 11:24:00,47.8,41.5,29.41,NNW,335,2.0,5.8,80,-99.99,,,-99.99,WSDL version 423,2013-05-26 15:24:00,
2013-05-26 11:29:00,48.3,41.9,29.41,NNW,333,3.8,8.1,78,-99.99,,,-99.99,WSDL version 423,2013-05-26 15:29:00,
2013-05-26 11:34:00,48.8,42.4,29.41,NW,307,2.8,9.4,76,-99.99,,,-99.99,WSDL version 423,2013-05-26 15:34:00,
2013-05-26 11:39:00,49.5,42.1,29.41,NNE,25,3.0,9.4,76,-99.99,,,-99.99,WSDL version 423,2013-05-26 15:39:00,
2013-05-26 11:44:00,50.7,42.9,29.41,WNW,293,3.3,6.5,72,-99.99,,,-99.99,WSDL version 423,2013-05-26 15:44:00,
2013-05-26 11:49:00,51.7,43.1,29.41,WNW,300,3.0,6.5,71,-99.99,,,-99.99,WSDL version 423,2013-05-26 15:49:00,
2013-05-26 11:54:00,52.0,42.1,29.41,ENE,73,4.0,7.2,68,-99.99,,,-99.99,WSDL version 423,2013-05-26 15:54:00,
2013-05-26 12:04:00,52.9,41.6,29.41,South,177,3.6,8.1,64,-99.99,,,-99.99,WSDL version 423,2013-05-26 16:04:00,
2013-05-26 12:09:00,52.6,40.2,29.41,NW,313,4.2,8.7,63,-99.99,,,-99.99,WSDL version 423,2013-05-26 16:09:00,
2013-05-26 12:14:00,53.2,41.9,29.41,WNW,298,2.9,8.7,66,-99.99,,,-99.99,WSDL version 423,2013-05-26 16:14:00,
2013-05-26 12:19:00,53.6,42.2,29.41,WNW,290,2.3,8.7,66,-99.99,,,-99.99,WSDL version 423,2013-05-26 16:19:00,
2013-05-26 12:24:00,53.8,41.0,29.41,NNW,335,3.6,8.7,61,-99.99,,,-99.99,WSDL version 423,2013-05-26 16:24:00,
2013-05-26 12:29:00,53.3,40.4,29.41,ESE,110,2.9,6.5,62,-99.99,,,-99.99,WSDL version 423,2013-05-26 16:29:00,
2013-05-26 12:34:00,53.3,40.7,29.41,North,3,4.4,8.7,56,-99.99,,,-99.99,WSDL version 423,2013-05-26 16:34:00,
2013-05-26 12:39:00,52.9,38.9,29.44,North,11,4.9,8.7,59,-99.99,,,-99.99,WSDL version 423,2013-05-26 16:39:00,
2013-05-26 12:44:00,52.9,39.5,29.44,West,278,3.9,8.1,61,-99.99,,,-99.99,WSDL version 423,2013-05-26 16:44:00,
2013-05-26 12:49:00,53.0,38.7,29.44,NNW,340,3.4,10.7,59,-99.99,,,-99.99,WSDL version 423,2013-05-26 16:49:00,
2013-05-26 12:54:00,53.6,40.1,29.44,NW,323,2.8,10.7,61,-99.99,,,-99.99,WSDL version 423,2013-05-26 16:54:00,
2013-05-26 12:59:00,54.3,40.7,29.44,NW,321,2.7,5.8,59,-99.99,,,-99.99,WSDL version 423,2013-05-26 16:59:00,
2013-05-26 13:04:00,54.4,40.2,29.44,North,352,2.0,7.4,60,-99.99,,,-99.99,WSDL version 423,2013-05-26 17:04:00,
2013-05-26 13:09:00,54.1,39.3,29.44,SSW,205,2.2,7.4,60,-99.99,,,-99.99,WSDL version 423,2013-05-26 17:09:00,
2013-05-26 13:14:00,53.8,39.7,29.44,WNW,283,3.2,5.8,59,-99.99,,,-99.99,WSDL version 423,2013-05-26 17:14:00,
2013-05-26 13:19:00,53.5,39.1,29.44,NW,323,3.5,10.7,58,-99.99,,,-99.99,WSDL version 423,2013-05-26 17:19:00,
2013-05-26 13:24:00,53.3,38.3,29.44,NW,326,3.9,10.7,56,-99.99,,,-99.99,WSDL version 423,2013-05-26 17:24:00,
2013-05-26 13:29:00,54.0,39.3,29.44,East,100,3.0,8.7,58,-99.99,,,-99.99,WSDL version 423,2013-05-26 17:29:00,
2013-05-26 13:34:00,54.7,38.4,29.44,North,3,3.7,6.3,52,-99.99,,,-99.99,WSDL version 423,2013-05-26 17:34:00,
2013-05-26 13:39:00,54.9,37.1,29.44,NNW,343,6.7,10.3,49,-99.99,,,-99.99,WSDL version 423,2013-05-26 17:39:00,
2013-05-26 13:44:00,55.5,37.5,29.44,NW,318,3.6,10.3,49,-99.99,,,-99.99,WSDL version 423,2013-05-26 17:44:00,
2013-05-26 13:49:00,56.6,38.0,29.44,North,352,6.2,8.1,47,-99.99,,,-99.99,WSDL version 423,2013-05-26 17:49:00,
2013-05-26 13:54:00,57.1,36.9,29.44,SSE,158,4.8,10.1,46,-99.99,,,-99.99,WSDL version 423,2013-05-26 17:54:00,
2013-05-26 13:59:00,57.5,36.7,29.44,NNE,14,5.6,11.0,45,-99.99,,,-99.99,WSDL version 423,2013-05-26 17:59:00,
2013-05-26 14:04:00,58.2,37.4,29.44,North,358,4.1,11.0,46,-99.99,,,-99.99,WSDL version 423,2013-05-26 18:04:00,
2013-05-26 14:09:00,58.3,34.9,29.44,NNW,346,7.2,12.1,41,-99.99,,,-99.99,WSDL version 423,2013-05-26 18:09:00,
2013-05-26 14:14:00,58.6,36.3,29.44,North,353,3.8,12.1,44,-99.99,,,-99.99,WSDL version 423,2013-05-26 18:14:00,
2013-05-26 14:24:00,59.4,34.2,29.41,North,3,3.9,11.0,38,-99.99,,,-99.99,WSDL version 423,2013-05-26 18:24:00,
2013-05-26 14:29:00,59.5,34.4,29.41,WNW,300,2.2,10.5,39,-99.99,,,-99.99,WSDL version 423,2013-05-26 18:29:00,
2013-05-26 14:34:00,60.2,34.8,29.41,West,267,1.8,6.0,37,-99.99,,,-99.99,WSDL version 423,2013-05-26 18:34:00,
2013-05-26 14:39:00,61.2,35.8,29.41,WSW,248,2.5,5.8,38,-99.99,,,-99.99,WSDL version 423,2013-05-26 18:39:00,
2013-05-26 14:44:00,60.8,34.7,29.41,NW,307,3.8,10.5,36,-99.99,,,-99.99,WSDL version 423,2013-05-26 18:44:00,
2013-05-26 14:49:00,60.3,32.8,29.41,NW,313,3.2,10.5,34,-99.99,,,-99.99,WSDL version 423,2013-05-26 18:49:00,
2013-05-26 14:54:00,60.1,31.1,29.41,SW,219,3.4,6.0,33,-99.99,,,-99.99,WSDL version 423,2013-05-26 18:54:00,
2013-05-26 14:59:00,60.2,29.3,29.41,ENE,62,4.1,8.1,30,-99.99,,,-99.99,WSDL version 423,2013-05-26 18:59:00,
2013-05-26 15:04:00,60.8,29.4,29.41,NNW,335,5.2,10.1,29,-99.99,,,-99.99,WSDL version 423,2013-05-26 19:04:00,
2013-05-26 15:09:00,60.1,27.1,29.41,North,349,3.8,10.1,29,-99.99,,,-99.99,WSDL version 423,2013-05-26 19:09:00,
2013-05-26 15:14:00,60.2,29.6,29.41,East,85,2.2,9.8,32,-99.99,,,-99.99,WSDL version 423,2013-05-26 19:14:00,
2013-05-26 15:19:00,60.6,31.1,29.41,NNW,335,2.3,5.6,32,-99.99,,,-99.99,WSDL version 423,2013-05-26 19:19:00,
2013-05-26 15:24:00,61.0,32.0,29.41,West,265,1.5,5.4,32,-99.99,,,-99.99,WSDL version 423,2013-05-26 19:24:00,
2013-05-26 15:34:00,60.6,28.7,29.41,WSW,250,2.0,6.5,31,-99.99,,,-99.99,WSDL version 423,2013-05-26 19:34:00,
2013-05-26 15:39:00,60.5,30.7,29.41,West,280,2.6,5.8,32,-99.99,,,-99.99,WSDL version 423,2013-05-26 19:39:00,
2013-05-26 15:44:00,60.0,29.2,29.41,NNW,329,2.2,5.8,31,-99.99,,,-99.99,WSDL version 423,2013-05-26 19:44:00,
2013-05-26 15:49:00,59.7,30.3,29.41,North,355,1.4,4.9,33,-99.99,,,-99.99,WSDL version 423,2013-05-26 19:49:00,
2013-05-26 15:54:00,59.5,30.4,29.44,NE,37,2.6,6.0,32,-99.99,,,-99.99,WSDL version 423,2013-05-26 19:54:00,
2013-05-26 15:59:00,58.9,28.4,29.44,WNW,301,3.1,8.1,31,-99.99,,,-99.99,WSDL version 423,2013-05-26 19:59:00,
2013-05-26 16:04:00,58.6,28.4,29.44,North,355,3.3,8.1,33,-99.99,,,-99.99,WSDL version 423,2013-05-26 20:04:00,
2013-05-26 16:09:00,58.9,30.7,29.44,SSW,196,0.5,4.9,34,-99.99,,,-99.99,WSDL version 423,2013-05-26 20:09:00,
2013-05-26 16:14:00,59.5,31.2,29.44,NNE,18,1.0,3.8,35,-99.99,,,-99.99,WSDL version 423,2013-05-26 20:14:00,
2013-05-26 16:19:00,59.9,30.5,29.44,North,360,2.8,4.9,32,-99.99,,,-99.99,WSDL version 423,2013-05-26 20:19:00,
2013-05-26 16:24:00,60.3,31.7,29.41,WSW,242,1.0,4.9,34,-99.99,,,-99.99,WSDL version 423,2013-05-26 20:24:00,
2013-05-26 16:29:00,61.2,32.9,29.41,North,352,0.0,2.7,35,-99.99,,,-99.99,WSDL version 423,2013-05-26 20:29:00,
2013-05-26 16:34:00,61.7,33.5,29.41,NW,320,0.6,3.6,34,-99.99,,,-99.99,WSDL version 423,2013-05-26 20:34:00,
2013-05-26 16:39:00,61.5,32.4,29.41,NW,309,1.3,5.8,33,-99.99,,,-99.99,WSDL version 423,2013-05-26 20:39:00,
2013-05-26 16:44:00,61.1,28.8,29.41,North,350,3.5,6.0,29,-99.99,,,-99.99,WSDL version 423,2013-05-26 20:44:00,
2013-05-26 16:49:00,60.8,29.5,29.41,NW,321,0.4,6.0,31,-99.99,,,-99.99,WSDL version 423,2013-05-26 20:49:00,
2013-05-26 16:54:00,60.8,29.8,29.44,NNE,25,1.2,4.0,31,-99.99,,,-99.99,WSDL version 423,2013-05-26 20:54:00,
2013-05-26 16:59:00,60.8,30.6,29.44,North,350,2.3,3.8,31,-99.99,,,-99.99,WSDL version 423,2013-05-26 20:59:00,
2013-05-26 17:04:00,60.6,28.5,29.44,NNW,346,3.8,6.3,28,-99.99,,,-99.99,WSDL version 423,2013-05-26 21:04:00,
2013-05-26 17:09:00,60.6,28.3,29.41,SSE,168,2.8,6.3,31,-99.99,,,-99.99,WSDL version 423,2013-05-26 21:09:00,
2013-05-26 17:14:00,60.8,28.8,29.41,NW,320,1.2,6.0,31,-99.99,,,-99.99,WSDL version 423,2013-05-26 21:14:00,
2013-05-26 17:19:00,61.0,29.2,29.41,North,6,3.0,5.8,29,-99.99,,,-99.99,WSDL version 423,2013-05-26 21:19:00,
2013-05-26 17:24:00,61.2,28.2,29.44,NNW,335,3.4,5.8,28,-99.99,,,-99.99,WSDL version 423,2013-05-26 21:24:00,
2013-05-26 17:29:00,61.3,27.3,29.44,North,357,3.2,6.3,26,-99.99,,,-99.99,WSDL version 423,2013-05-26 21:29:00,
2013-05-26 17:34:00,61.7,26.8,29.44,North,360,2.3,6.3,25,-99.99,,,-99.99,WSDL version 423,2013-05-26 21:34:00,
2013-05-26 17:39:00,61.9,26.5,29.44,West,259,3.0,5.6,26,-99.99,,,-99.99,WSDL version 423,2013-05-26 21:39:00,
2013-05-26 17:44:00,62.0,26.6,29.44,WSW,258,2.5,8.1,26,-99.99,,,-99.99,WSDL version 423,2013-05-26 21:44:00,
2013-05-26 17:49:00,62.0,27.7,29.44,SW,222,1.1,8.1,27,-99.99,,,-99.99,WSDL version 423,2013-05-26 21:49:00,
2013-05-26 17:54:00,62.0,27.2,29.44,SW,230,2.3,4.7,26,-99.99,,,-99.99,WSDL version 423,2013-05-26 21:54:00,
2013-05-26 17:59:00,61.9,26.6,29.44,WSW,250,2.5,4.7,26,-99.99,,,-99.99,WSDL version 423,2013-05-26 21:59:00,
2013-05-26 18:04:00,62.0,27.2,29.44,SSW,209,2.0,4.0,26,-99.99,,,-99.99,WSDL version 423,2013-05-26 22:04:00,
2013-05-26 18:09:00,62.0,26.7,29.44,SSE,160,3.1,6.0,26,-99.99,,,-99.99,WSDL version 423,2013-05-26 22:09:00,
2013-05-26 18:14:00,61.7,26.6,29.44,West,281,1.5,6.0,26,-99.99,,,-99.99,WSDL version 423,2013-05-26 22:14:00,
2013-05-26 18:19:00,61.8,26.2,29.44,WNW,285,1.7,5.4,26,-99.99,,,-99.99,WSDL version 423,2013-05-26 22:19:00,
2013-05-26 18:24:00,61.6,26.4,29.44,SSW,210,1.1,5.4,26,-99.99,,,-99.99,WSDL version 423,2013-05-26 22:24:00,
2013-05-26 18:29:00,61.3,25.8,29.44,NE,51,3.3,6.3,25,-99.99,,,-99.99,WSDL version 423,2013-05-26 22:29:00,
2013-05-26 18:34:00,61.5,25.2,29.44,WNW,295,3.9,8.7,25,-99.99,,,-99.99,WSDL version 423,2013-05-26 22:34:00,
2013-05-26 18:39:00,61.5,25.4,29.44,WNW,293,1.6,8.7,25,-99.99,,,-99.99,WSDL version 423,2013-05-26 22:39:00,
2013-05-26 18:44:00,61.3,25.2,29.44,NNW,340,1.0,2.7,25,-99.99,,,-99.99,WSDL version 423,2013-05-26 22:44:00,
2013-05-26 18:49:00,61.6,25.5,29.44,West,273,3.5,7.8,25,-99.99,,,-99.99,WSDL version 423,2013-05-26 22:49:00,
2013-05-26 18:54:00,61.9,25.7,29.44,South,170,2.0,7.8,25,-99.99,,,-99.99,WSDL version 423,2013-05-26 22:54:00,
2013-05-26 19:04:00,62.0,25.8,29.44,WSW,238,3.6,8.7,25,-99.99,,,-99.99,WSDL version 423,2013-05-26 23:04:00,
2013-05-26 19:09:00,62.0,25.8,29.44,SW,228,3.6,10.7,25,-99.99,,,-99.99,WSDL version 423,2013-05-26 23:09:00,
2013-05-26 19:14:00,62.1,25.9,29.44,SW,225,2.8,10.7,25,-99.99,,,-99.99,WSDL version 423,2013-05-26 23:14:00,
2013-05-26 19:19:00,61.9,25.7,29.44,East,85,2.5,7.6,25,-99.99,,,-99.99,WSDL version 423,2013-05-26 23:19:00,
2013-05-26 19:24:00,61.5,25.4,29.44,WSW,244,1.5,5.6,25,-99.99,,,-99.99,WSDL version 423,2013-05-26 23:24:00,
2013-05-26 19:29:00,61.3,25.2,29.44,West,268,2.4,5.6,25,-99.99,,,-99.99,WSDL version 423,2013-05-26 23:29:00,
2013-05-26 19:34:00,60.8,24.8,29.44,SW,231,2.0,5.8,25,-99.99,,,-99.99,WSDL version 423,2013-05-26 23:34:00,
2013-05-26 19:39:00,60.4,24.4,29.44,North,6,0.7,5.8,25,-99.99,,,-99.99,WSDL version 423,2013-05-26 23:39:00,
2013-05-26 19:44:00,59.7,23.9,29.44,NW,308,0.4,3.8,25,-99.99,,,-99.99,WSDL version 423,2013-05-26 23:44:00,
2013-05-26 19:49:00,59.2,23.4,29.44,SSE,163,2.5,4.0,25,-99.99,,,-99.99,WSDL version 423,2013-05-26 23:49:00,
2013-05-26 19:54:00,58.6,23.9,29.44,NNE,20,0.0,4.0,26,-99.99,,,-99.99,WSDL version 423,2013-05-26 23:54:00,
2013-05-26 19:59:00,58.0,23.3,29.44,South,177,0.0,3.1,26,-99.99,,,-99.99,WSDL version 423,2013-05-26 23:59:00,
2013-05-26 20:04:00,57.3,22.9,29.44,NE,45,0.0,3.1,27,-99.99,,,-99.99,WSDL version 423,2013-05-27 00:04:00,
2013-05-26 20:09:00,56.8,23.2,29.44,SSW,203,0.0,1.1,27,-99.99,,,-99.99,WSDL version 423,2013-05-27 00:09:00,
2013-05-26 20:14:00,56.2,23.1,29.44,SE,146,0.0,1.1,28,-99.99,,,-99.99,WSDL version 423,2013-05-27 00:14:00,
2013-05-26 20:19:00,55.5,24.4,29.44,SE,135,0.0,0.0,32,-99.99,,,-99.99,WSDL version 423,2013-05-27 00:19:00,
2013-05-26 20:24:00,54.8,26.6,29.44,SE,135,0.0,0.0,35,-99.99,,,-99.99,WSDL version 423,2013-05-27 00:24:00,
2013-05-26 20:29:00,54.3,27.8,29.44,NE,38,0.0,2.7,36,-99.99,,,-99.99,WSDL version 423,2013-05-27 00:29:00,
2013-05-26 20:34:00,53.8,28.5,29.44,NW,315,0.0,2.7,38,-99.99,,,-99.99,WSDL version 423,2013-05-27 00:34:00,
2013-05-26 20:39:00,53.4,29.1,29.44,West,270,0.0,2.5,40,-99.99,,,-99.99,WSDL version 423,2013-05-27 00:39:00,
2013-05-26 20:44:00,53.0,29.6,29.44,West,270,0.0,0.0,41,-99.99,,,-99.99,WSDL version 423,2013-05-27 00:44:00,
2013-05-26 20:49:00,52.6,30.0,29.44,SSW,203,0.0,0.0,42,-99.99,,,-99.99,WSDL version 423,2013-05-27 00:49:00,
2013-05-26 20:54:00,52.3,30.9,29.47,South,183,0.0,3.1,43,-99.99,,,-99.99,WSDL version 423,2013-05-27 00:54:00,
2013-05-26 20:59:00,52.0,31.6,29.47,West,270,0.4,3.1,46,-99.99,,,-99.99,WSDL version 423,2013-05-27 00:59:00,
2013-05-26 21:04:00,51.7,31.9,29.47,West,270,0.0,2.2,47,-99.99,,,-99.99,WSDL version 423,2013-05-27 01:04:00,
2013-05-26 21:14:00,51.1,32.6,29.44,West,270,0.0,0.0,50,-99.99,,,-99.99,WSDL version 423,2013-05-27 01:14:00,
2013-05-26 21:19:00,50.6,32.9,29.44,South,180,0.0,0.0,51,-99.99,,,-99.99,WSDL version 423,2013-05-27 01:19:00,
2013-05-26 21:24:00,50.2,32.8,29.47,South,180,0.0,0.0,51,-99.99,,,-99.99,WSDL version 423,2013-05-27 01:24:00,
2013-05-26 21:29:00,49.9,32.8,29.47,SSW,203,0.0,0.0,52,-99.99,,,-99.99,WSDL version 423,2013-05-27 01:29:00,
2013-05-26 21:34:00,49.7,32.9,29.47,SSW,203,0.0,0.0,52,-99.99,,,-99.99,WSDL version 423,2013-05-27 01:34:00,
2013-05-26 21:39:00,49.5,33.0,29.47,SSW,203,0.0,0.0,53,-99.99,,,-99.99,WSDL version 423,2013-05-27 01:39:00,
2013-05-26 21:44:00,49.2,33.0,29.47,South,169,0.0,0.0,53,-99.99,,,-99.99,WSDL version 423,2013-05-27 01:44:00,
2013-05-26 21:49:00,48.9,32.9,29.47,East,90,0.0,0.0,54,-99.99,,,-99.99,WSDL version 423,2013-05-27 01:49:00,
2013-05-26 21:54:00,48.6,33.1,29.47,South,180,0.0,0.0,55,-99.99,,,-99.99,WSDL version 423,2013-05-27 01:54:00,
2013-05-26 22:04:00,47.8,33.4,29.47,SSW,203,0.0,0.0,58,-99.99,,,-99.99,WSDL version 423,2013-05-27 02:04:00,
2013-05-26 22:09:00,47.6,33.8,29.47,SSW,203,0.0,0.0,59,-99.99,,,-99.99,WSDL version 423,2013-05-27 02:09:00,
2013-05-26 22:14:00,47.4,34.0,29.47,SSW,203,0.0,0.0,60,-99.99,,,-99.99,WSDL version 423,2013-05-27 02:14:00,
2013-05-26 22:24:00,47.1,34.3,29.47,SSW,203,0.0,0.0,61,-99.99,,,-99.99,WSDL version 423,2013-05-27 02:24:00,
2013-05-26 22:29:00,46.9,34.6,29.47,SSW,205,0.0,0.0,63,-99.99,,,-99.99,WSDL version 423,2013-05-27 02:29:00,
2013-05-26 22:34:00,46.7,34.7,29.47,ENE,70,0.0,0.0,62,-99.99,,,-99.99,WSDL version 423,2013-05-27 02:34:00,
2013-05-26 22:39:00,46.6,34.8,29.47,SSE,158,0.0,0.0,64,-99.99,,,-99.99,WSDL version 423,2013-05-27 02:39:00,
2013-05-26 22:44:00,46.4,35.4,29.47,SW,225,0.0,0.0,66,-99.99,,,-99.99,WSDL version 423,2013-05-27 02:44:00,
2013-05-26 22:49:00,46.4,35.7,29.47,SE,130,0.0,0.0,67,-99.99,,,-99.99,WSDL version 423,2013-05-27 02:49:00,
2013-05-26 22:54:00,46.1,35.6,29.47,East,101,0.0,0.0,67,-99.99,,,-99.99,WSDL version 423,2013-05-27 02:54:00,
2013-05-26 22:59:00,46.0,35.9,29.47,ESE,113,0.0,0.0,68,-99.99,,,-99.99,WSDL version 423,2013-05-27 02:59:00,
2013-05-26 23:04:00,45.8,35.6,29.47,ESE,113,0.0,0.0,68,-99.99,,,-99.99,WSDL version 423,2013-05-27 03:04:00,
2013-05-26 23:09:00,45.5,35.6,29.47,ESE,113,0.0,0.0,68,-99.99,,,-99.99,WSDL version 423,2013-05-27 03:09:00,
2013-05-26 23:14:00,45.3,35.5,29.47,ENE,68,0.0,0.0,69,-99.99,,,-99.99,WSDL version 423,2013-05-27 03:14:00,
2013-05-26 23:19:00,45.3,36.1,29.47,NNE,28,0.0,0.0,70,-99.99,,,-99.99,WSDL version 423,2013-05-27 03:19:00,
2013-05-26 23:24:00,45.2,36.1,29.47,East,95,0.0,0.0,71,-99.99,,,-99.99,WSDL version 423,2013-05-27 03:24:00,
2013-05-26 23:29:00,45.0,35.9,29.47,North,360,0.0,0.0,70,-99.99,,,-99.99,WSDL version 423,2013-05-27 03:29:00,
2013-05-26 23:34:00,44.8,35.9,29.47,North,360,0.0,0.0,71,-99.99,,,-99.99,WSDL version 423,2013-05-27 03:34:00,
2013-05-26 23:39:00,44.7,36.4,29.47,North,360,0.0,0.0,72,-99.99,,,-99.99,WSDL version 423,2013-05-27 03:39:00,
2013-05-26 23:44:00,44.5,36.1,29.47,North,360,0.0,0.0,73,-99.99,,,-99.99,WSDL version 423,2013-05-27 03:44:00,
2013-05-26 23:49:00,44.2,36.4,29.47,North,360,0.0,0.0,74,-99.99,,,-99.99,WSDL version 423,2013-05-27 03:49:00,
2013-05-26 23:54:00,43.9,36.1,29.47,North,360,0.0,0.0,74,-99.99,,,-99.99,WSDL version 423,2013-05-27 03:54:00,